{"data":{"norad_id":58417,"intl_designator":"2023-180R","name":"STARLINK-30955","alt_names":[],"object_type":"PAYLOAD","status":"ACTIVE","operator":null,"country":"US","launch_date":"2023-11-22","launch_site_code":"AFETR","launch_vehicle":null,"mission":null,"orbit_class":"UNKNOWN","rcs_meters":null,"size_class":null,"mass_kg":null,"dimensions":null,"purposes":["comms"],"wikipedia_slug":null,"has_3d_model":false,"image_url":null,"decayed_at":null,"tle_current":{"epoch":"2026-09-19T17:01:56.733024Z","epoch_age_seconds":215067,"freshness":"STALE","line1":"1 58417U 23180R   26262.70968441 -.00000804  00000+0 -19706-4 0  9996","line2":"2 58417  43.0029  36.4006 0001080 252.7821 107.2913 15.27571164157308","mean_motion":15.27571164,"eccentricity":0.000108,"inclination_deg":43.0029,"raan_deg":36.4006,"arg_perigee_deg":252.7821,"mean_anomaly_deg":107.2913,"bstar":-1.9706e-5,"rev_number":15730,"period_min":94.267293985133,"perigee_km":482.33454337406,"apogee_km":483.81656528579,"semimajor_km":6861.2125543299,"source":"CELESTRAK","updated_at":"2026-09-21T09:00:33.873051Z"}}}